Weather History for Charles City, IA

Change the Weather History Date:

Sunday, March 9, 2014

  Actual Average Record
Temperature  
Mean Temperature 25 °F -  
Max Temperature 42 °F 40 °F 61 °F (1977)
Min Temperature 8 °F 20 °F -10 °F (1975)
Degree Days  
Heating Degree Days 40    
Moisture  
Dew Point 22 °F    
Average Humidity 79    
Maximum Humidity 92    
Minimum Humidity 65    
Precipitation  
Precipitation 0.00 in - - ()
Sea Level Pressure  
Sea Level Pressure 29.93 in    
Wind  
Wind Speed 11 mph (SSW)    
Max Wind Speed 24 mph    
Max Gust Speed 28 mph    
Visibility 10 miles    
Events      
Averages and records for this station are not official NWS values.
T = Trace of Precipitation, MM = Missing Value Source: NWS Daily Summary

Daily Weather History Graph

Daily Weather History Graph

Search for Another Location

Airport:

Trip Planner

Search our weather history database for the weather conditions in past years. The results will help you decide how hot, cold, wet, or windy it might be!

Date:

Astronomy

Mar. 09, 2014 Rise Set
Actual Time 7:32 AM CDT 7:09 PM CDT
Civil Twilight 7:04 AM CDT 7:37 PM CDT
Nautical Twilight 6:31 AM CDT 8:10 PM CDT
Astronomical Twilight 5:58 AM CDT 8:44 PM CDT
Moon 12:56 PM CDT (3/9) 3:05 AM CDT (3/9)
Length of Visible Light 12h 33m
Length of Day
11h 36m
First Quarter, 61% of the Moon is Illuminated
Mar 9
First Quarter
Mar 16
Full
Mar 23
Last Quarter
Mar 30
New
Apr 7
First Quarter

Hourly Weather History & Observations

Time (CDT) Temp. Windchill Dew Point Humidity Pressure Visibility Wind Dir Wind Speed Gust Speed Precip Events Conditions
12:15 AM 10.4 °F 0.8 °F 6.8 °F 85% 30.23 in 10.0 mi SW 5.8 mph - N/A   Clear
12:35 AM 12.2 °F 1.7 °F 8.6 °F 85% 30.23 in 10.0 mi SSW 6.9 mph - N/A   Clear
12:55 AM 12.2 °F 4.3 °F 8.6 °F 85% 30.22 in 10.0 mi SSW 4.6 mph - N/A   Clear
1:15 AM 10.4 °F 0.8 °F 6.8 °F 85% 30.21 in 7.0 mi South 5.8 mph - N/A   Clear
1:35 AM 8.6 °F -4.7 °F 5.0 °F 85% 30.20 in 6.0 mi South 9.2 mph - N/A   Clear
1:55 AM 8.6 °F -1.3 °F 5.0 °F 85% 30.20 in 7.0 mi SSW 5.8 mph - N/A   Clear
3:15 AM 8.6 °F -2.6 °F 5.0 °F 85% 30.20 in 8.0 mi SSW 6.9 mph - N/A   Clear
3:35 AM 8.6 °F -3.7 °F 5.0 °F 85% 30.18 in 8.0 mi South 8.1 mph - N/A   Clear
3:55 AM 10.4 °F -3.3 °F 6.8 °F 85% 30.17 in 10.0 mi South 10.4 mph - N/A   Clear
4:15 AM 10.4 °F -1.5 °F 6.8 °F 85% 30.17 in 10.0 mi SSW 8.1 mph - N/A   Clear
4:35 AM 8.6 °F -3.7 °F 5.0 °F 85% 30.15 in 10.0 mi South 8.1 mph - N/A   Clear
4:55 AM 10.4 °F -2.4 °F 6.8 °F 85% 30.15 in 10.0 mi South 9.2 mph - N/A   Clear
5:15 AM 10.4 °F -2.4 °F 6.8 °F 85% 30.15 in 10.0 mi SSW 9.2 mph - N/A   Clear
5:35 AM 10.4 °F -1.5 °F 6.8 °F 85% 30.15 in 10.0 mi South 8.1 mph - N/A   Clear
5:55 AM 10.4 °F -1.5 °F 6.8 °F 85% 30.14 in 10.0 mi SSW 8.1 mph - N/A   Clear
6:15 AM 12.2 °F -1.8 °F 8.6 °F 85% 30.13 in 10.0 mi South 11.5 mph - N/A   Clear
6:35 AM 12.2 °F -1.8 °F 8.6 °F 85% 30.11 in 10.0 mi South 11.5 mph - N/A   Clear
6:55 AM 12.2 °F -2.5 °F 10.4 °F 92% 30.11 in 10.0 mi SSW 12.7 mph - N/A   Scattered Clouds
7:15 AM 12.2 °F -1.0 °F 10.4 °F 92% 30.11 in 10.0 mi South 10.4 mph - N/A   Partly Cloudy
7:35 AM 14.0 °F 0.5 °F 10.4 °F 86% 30.10 in 10.0 mi South 11.5 mph - N/A   Clear
7:55 AM 14.0 °F 1.2 °F 10.4 °F 86% 30.10 in 10.0 mi South 10.4 mph - N/A   Clear
8:15 AM 15.8 °F 1.4 °F 12.2 °F 86% 30.08 in 10.0 mi South 13.8 mph - N/A   Clear
8:35 AM 17.6 °F 3.2 °F 14.0 °F 86% 30.06 in 10.0 mi South 15.0 mph - N/A   Partly Cloudy
8:55 AM 19.4 °F 5.5 °F 15.8 °F 86% 30.06 in 10.0 mi South 15.0 mph - N/A   Partly Cloudy
9:15 AM 21.2 °F 6.8 °F 17.6 °F 86% 30.04 in 10.0 mi South 17.3 mph - N/A   Clear
9:35 AM 23.0 °F 9.6 °F 17.6 °F 80% 30.04 in 10.0 mi South 16.1 mph - N/A   Clear
9:55 AM 23.0 °F 8.0 °F 19.4 °F 86% 30.02 in 10.0 mi South 20.7 mph - N/A   Clear
10:15 AM 24.8 °F 9.6 °F 19.4 °F 80% 30.00 in 10.0 mi South 23.0 mph - N/A   Clear
10:35 AM 26.6 °F 12.7 °F 19.4 °F 74% 29.99 in 10.0 mi SSW 20.7 mph - N/A   Clear
10:55 AM 28.4 °F 15.1 °F 21.2 °F 74% 29.98 in 10.0 mi South 20.7 mph - N/A   Partly Cloudy
11:15 AM 30.2 °F 17.1 °F 23.0 °F 75% 29.96 in 10.0 mi SSW 21.9 mph - N/A   Partly Cloudy
11:35 AM 30.2 °F 16.8 °F 23.0 °F 75% 29.94 in 10.0 mi South 23.0 mph - N/A   Clear
11:55 AM 32.0 °F 19.5 °F 24.8 °F 75% 29.93 in 10.0 mi SSW 21.9 mph - N/A   Clear
12:15 PM 33.8 °F 22.5 °F 26.6 °F 75% 29.92 in 10.0 mi SSW 19.6 mph - N/A   Clear
12:35 PM 35.6 °F 24.8 °F 26.6 °F 70% 29.92 in 10.0 mi SSW 19.6 mph - N/A   Clear
12:55 PM 35.6 °F 25.2 °F 26.6 °F 70% 29.90 in 10.0 mi SSW 18.4 mph 27.6 mph N/A   Clear
1:15 PM 37.4 °F 27.5 °F 28.4 °F 70% 29.89 in 10.0 mi SSW 18.4 mph - N/A   Partly Cloudy
1:35 PM 37.4 °F 26.6 °F 28.4 °F 70% 29.88 in 10.0 mi SSW 21.9 mph - N/A   Clear
1:55 PM 37.4 °F 26.9 °F 28.4 °F 70% 29.85 in 10.0 mi South 20.7 mph - N/A   Partly Cloudy
2:15 PM 37.4 °F 26.1 °F 28.4 °F 70% 29.82 in 10.0 mi South 24.2 mph - N/A   Partly Cloudy
2:35 PM 37.4 °F 26.1 °F 28.4 °F 70% 29.81 in 10.0 mi SSW 24.2 mph - N/A   Partly Cloudy
2:55 PM 37.4 °F 27.8 °F 30.2 °F 75% 29.82 in 10.0 mi SSW 17.3 mph 25.3 mph N/A   Scattered Clouds
3:15 PM 39.2 °F 30.5 °F 30.2 °F 70% 29.81 in 10.0 mi SSW 16.1 mph 21.9 mph N/A   Partly Cloudy
3:35 PM 39.2 °F 30.2 °F 30.2 °F 70% 29.79 in 10.0 mi SSW 17.3 mph 26.5 mph N/A   Clear
3:55 PM 39.2 °F 30.8 °F 30.2 °F 70% 29.80 in 10.0 mi SSW 15.0 mph - N/A   Clear
4:15 PM 39.2 °F 30.8 °F 30.2 °F 70% 29.79 in 10.0 mi SSW 15.0 mph - N/A   Clear
4:35 PM 41.0 °F 33.1 °F 30.2 °F 65% 29.79 in 10.0 mi SSW 15.0 mph - N/A   Clear
4:55 PM 41.0 °F 33.1 °F 32.0 °F 70% 29.78 in 10.0 mi SW 15.0 mph - N/A   Clear
5:15 PM 42.8 °F 35.1 °F 32.0 °F 66% 29.78 in 10.0 mi SW 16.1 mph - N/A   Clear
5:35 PM 41.0 °F 33.1 °F 32.0 °F 70% 29.77 in 10.0 mi SSW 15.0 mph - N/A   Clear
5:55 PM 41.0 °F 33.5 °F 32.0 °F 70% 29.77 in 10.0 mi SW 13.8 mph 19.6 mph N/A   Clear
6:15 PM 41.0 °F 33.9 °F 32.0 °F 70% 29.76 in 10.0 mi SSW 12.7 mph - N/A   Clear
6:35 PM 39.2 °F 32.5 °F 32.0 °F 75% 29.75 in 10.0 mi SSW 10.4 mph - N/A   Clear
6:55 PM 39.2 °F 33.6 °F 32.0 °F 75% 29.76 in 10.0 mi SSW 8.1 mph - N/A   Clear
7:15 PM 39.2 °F 35.9 °F 32.0 °F 75% 29.77 in 10.0 mi SSW 4.6 mph - N/A   Clear
7:35 PM 37.4 °F 32.8 °F 32.0 °F 81% 29.77 in 10.0 mi South 5.8 mph - N/A   Clear
7:55 PM 39.2 °F 35.9 °F 32.0 °F 75% 29.78 in 10.0 mi South 4.6 mph - N/A   Clear
8:15 PM 37.4 °F 32.1 °F 32.0 °F 81% 29.77 in 10.0 mi SSW 6.9 mph - N/A   Clear
8:35 PM 39.2 °F 34.2 °F 32.0 °F 75% 29.77 in 10.0 mi South 6.9 mph - N/A   Clear
8:55 PM 37.4 °F 32.8 °F 32.0 °F 81% 29.76 in 10.0 mi South 5.8 mph - N/A   Clear
9:15 PM 39.2 °F 34.2 °F 32.0 °F 75% 29.76 in 10.0 mi SSW 6.9 mph - N/A   Clear
9:35 PM 39.2 °F 34.2 °F 33.8 °F 81% 29.76 in 10.0 mi SW 6.9 mph - N/A   Partly Cloudy
9:55 PM 39.2 °F 34.2 °F 33.8 °F 81% 29.76 in 10.0 mi SW 6.9 mph - N/A   Clear
10:15 PM 39.2 °F 35.0 °F 33.8 °F 81% 29.75 in 10.0 mi SW 5.8 mph - N/A   Mostly Cloudy
10:35 PM 39.2 °F 35.0 °F 33.8 °F 81% 29.75 in 10.0 mi SW 5.8 mph - N/A   Mostly Cloudy
10:55 PM 39.2 °F 33.6 °F 33.8 °F 81% 29.75 in 10.0 mi SW 8.1 mph - N/A   Overcast
11:15 PM 39.2 °F 34.2 °F 33.8 °F 81% 29.74 in 10.0 mi SW 6.9 mph - N/A   Overcast
11:35 PM 39.2 °F 34.2 °F 33.8 °F 81% 29.73 in 10.0 mi SW 6.9 mph - N/A   Overcast
11:55 PM 39.2 °F 34.2 °F 33.8 °F 81% 29.73 in 10.0 mi SW 6.9 mph - N/A   Overcast
12:15 AM 37.4 °F 32.1 °F 32.0 °F 81% 29.72 in 10.0 mi SW 6.9 mph - N/A   Overcast
12:35 AM 41.0 °F 36.4 °F 33.8 °F 76% 29.72 in 10.0 mi SW 6.9 mph - N/A   Overcast
12:55 AM 39.2 °F 35.0 °F 33.8 °F 81% 29.71 in 10.0 mi SW 5.8 mph - N/A   Overcast